TimeEST,TemperatureF,Dew PointF,Humidity,Sea Level PressureIn,VisibilityMPH,Wind Direction,Wind SpeedMPH,Gust SpeedMPH,PrecipitationIn,Events,Conditions,WindDirDegrees,DateUTC
12:52 AM,28.9,8.1,41,29.95,10.0,West,8.1,-,N/A,,Clear,280,2013-01-21 05:52:00
1:52 AM,28.9,6.1,38,29.98,10.0,West,9.2,16.1,N/A,,Clear,270,2013-01-21 06:52:00
2:52 AM,28.0,7.0,41,30.01,10.0,Variable,5.8,-,N/A,,Clear,0,2013-01-21 07:52:00
3:52 AM,27.0,8.1,45,30.02,10.0,NW,9.2,-,N/A,,Clear,310,2013-01-21 08:52:00
4:52 AM,25.0,6.1,45,30.04,10.0,WNW,5.8,-,N/A,,Clear,290,2013-01-21 09:52:00
5:52 AM,25.0,5.0,43,30.06,10.0,West,8.1,-,N/A,,Clear,280,2013-01-21 10:52:00
6:52 AM,23.0,3.9,44,30.07,10.0,WNW,4.6,-,N/A,,Clear,290,2013-01-21 11:52:00
7:52 AM,24.1,6.1,46,30.09,10.0,WSW,3.5,-,N/A,,Clear,240,2013-01-21 12:52:00
8:52 AM,27.0,5.0,39,30.11,10.0,WNW,5.8,-,N/A,,Mostly Cloudy,290,2013-01-21 13:52:00
9:52 AM,28.0,3.9,36,30.10,10.0,NNW,9.2,-,N/A,,Clear,340,2013-01-21 14:52:00
10:52 AM,28.0,3.9,36,30.09,10.0,WSW,6.9,-,N/A,,Overcast,250,2013-01-21 15:52:00
11:52 AM,28.9,5.0,36,30.04,10.0,WSW,6.9,-,N/A,,Partly Cloudy,250,2013-01-21 16:52:00
12:52 PM,28.9,3.9,35,30.01,10.0,WSW,5.8,-,N/A,,Clear,240,2013-01-21 17:52:00
1:52 PM,30.0,5.0,35,29.99,10.0,WSW,4.6,-,N/A,,Scattered Clouds,240,2013-01-21 18:52:00
2:52 PM,30.0,7.0,38,29.98,10.0,Variable,4.6,-,N/A,,Mostly Cloudy,0,2013-01-21 19:52:00
3:52 PM,30.0,8.1,40,29.96,10.0,Calm,Calm,-,N/A,,Overcast,0,2013-01-21 20:52:00
4:52 PM,28.9,15.1,56,29.94,9.0,SSW,5.8,-,0.00,,Overcast,200,2013-01-21 21:52:00
5:52 PM,27.0,18.0,69,29.93,4.0,Calm,Calm,-,0.00,Snow,Light Snow,0,2013-01-21 22:52:00
6:02 PM,27.0,19.0,72,29.92,1.8,South,3.5,-,0.00,Snow,Light Snow,180,2013-01-21 23:02:00
6:28 PM,26.1,21.0,81,29.93,1.2,Calm,Calm,-,0.00,Snow,Light Snow,0,2013-01-21 23:28:00
6:39 PM,26.1,21.0,81,29.93,0.8,Calm,Calm,-,0.01,Snow,Light Snow,0,2013-01-21 23:39:00
6:52 PM,26.1,21.0,81,29.93,1.0,Calm,Calm,-,0.02,Snow,Light Snow,0,2013-01-21 23:52:00
7:50 PM,26.6,21.2,80,29.90,1.2,North,3.5,-,0.03,Snow,Light Snow,10,2013-01-22 00:50:00
7:52 PM,26.1,21.9,84,29.91,1.2,Variable,3.5,-,0.03,Snow,Light Snow,0,2013-01-22 00:52:00
8:17 PM,26.1,21.9,84,29.90,1.5,NNE,3.5,-,0.01,Snow,Light Snow,30,2013-01-22 01:17:00
8:50 PM,26.6,21.2,80,29.89,2.0,Calm,Calm,-,0.01,Snow,Light Snow,0,2013-01-22 01:50:00
8:52 PM,26.1,21.9,84,29.89,2.0,Calm,Calm,-,0.01,Snow,Light Snow,0,2013-01-22 01:52:00
9:18 PM,26.1,21.9,84,29.87,3.0,Calm,Calm,-,0.01,Snow,Light Snow,0,2013-01-22 02:18:00
9:52 PM,26.1,21.0,81,29.86,7.0,NNE,5.8,-,0.01,,Overcast,20,2013-01-22 02:52:00
10:05 PM,26.1,21.0,81,29.85,4.0,Calm,Calm,-,0.00,Snow,Light Snow,0,2013-01-22 03:05:00
10:21 PM,25.0,21.0,85,29.84,3.0,North,3.5,-,0.00,Snow,Light Snow,360,2013-01-22 03:21:00
10:40 PM,25.0,21.0,85,29.83,5.0,Variable,3.5,-,0.00,Snow,Light Snow,0,2013-01-22 03:40:00
10:52 PM,25.0,21.0,85,29.83,7.0,North,3.5,-,0.00,,Overcast,10,2013-01-22 03:52:00
11:01 PM,25.0,21.0,85,29.82,9.0,North,3.5,-,N/A,,Overcast,360,2013-01-22 04:01:00
11:35 PM,25.0,19.9,81,29.79,1.8,NNW,5.8,-,0.00,Snow,Light Snow,340,2013-01-22 04:35:00
11:41 PM,25.0,19.9,81,29.78,1.2,North,4.6,-,0.00,Snow,Light Snow,350,2013-01-22 04:41:00
11:50 PM,24.8,19.4,80,29.78,1.8,NNW,3.5,-,0.00,Snow,Light Snow,340,2013-01-22 04:50:00
11:52 PM,25.0,19.9,81,29.79,2.0,NNW,3.5,-,0.00,Snow,Light Snow,340,2013-01-22 04:52:00